Weather Roundup
Issued by NWS Corpus Christi, TX

Home | Current Version | Previous Version | Text Only | Print | Product List | Glossary On
Versions: 1 2 3 4 5 6 7 8 9 10 11 12 13 14 15 16 17 18 19 20 21 22 23 24 25 26 27 28 29 30 31 32 33 34 35 36 37 38 39 40 41 42 43 44 45 46 47 48 49 50
000
ASUS44 KCRP 220610
HRRCRP

SOUTH TEXAS REGIONAL WEATHER ROUNDUP
NATIONAL WEATHER SERVICE CORPUS CHRISTI TX
100 AM CDT FRI SEP 22 2017


TXZ229>244-220700-
...CORPUS CHRISTI AREA OBSERVATIONS...

CITY           SKY/WX    TMP DP  RH WIND       PRES   REMARKS
CORPUS CHRISTI PTCLDY    81  76  84 SE8       29.90S
NAS CORPUS CHR PTCLDY    84  78  82 SE9       29.90S HX  95
ROCKPORT       MOCLDY    82  77  84 SE17      29.91S HX  90
KINGSVILLE ARP CLOUDY    81  81 100 E5        29.90R FOG     HX  91
KINGSVILLE NAS CLOUDY    81  80  97 E7        29.89S HX  91
ALICE          PTCLDY    79  77  94 E7        29.90R
$$

...VICTORIA AREA OBSERVATIONS...

CITY           SKY/WX    TMP DP  RH WIND       PRES   REMARKS
PORT LAVACA    NOT AVBL
VICTORIA       PTCLDY    76  74  93 SE7       29.93S
BEEVILLE       FAIR      79  79 100 SE7       29.91S
PLEASANTON     MOCLDY    76  74  95 E3        29.92S
SAN ANTONIO    CLOUDY    76  70  82 SE10      29.95R
$$

...LAREDO AREA OBSERVATIONS...

CITY           SKY/WX    TMP DP  RH WIND       PRES   REMARKS
LAREDO         CLEAR     81  75  82 SE14      29.87S
COTULLA        PTCLDY    80  73  79 SE9       29.88R
DEL RIO        CLEAR     80  69  69 SE9       29.86S
MCALLEN        PTCLDY    84  76  76 SE14      29.87F HX  93
HEBBRONVILLE   CLEAR     77  74  91 S9        29.90S
$$

...OTHER TEXAS OBSERVATIONS...

CITY           SKY/WX    TMP DP  RH WIND       PRES   REMARKS
BROWNSVILLE    CLEAR     81  76  84 SE9       29.89S
HOUSTON        MOCLDY    76  74  93 CALM      29.94F
COL. STATION   CLEAR     75  73  93 SE8       29.95S
AUSTIN         CLOUDY    75  72  90 E5        29.95R
WACO           CLEAR     76  71  85 S13       29.94S
FORT WORTH     CLEAR     79  71  76 S13       29.91F
WICHITA FALLS  CLEAR     78  67  68 S15       29.87F
LUBBOCK        CLEAR     75  58  55 S13       29.92S
EL PASO        PTCLDY    81  43  26 SW9       29.91R
$$

...MARINE OBSERVATIONS...

STATION/POSITION TIME  SKY/WX   TEMP    WIND        PRES    VSBY  WAVE   SWELL
                                AIR SEA DIR/SP/G                  HT/PER HT/PER
                 (UTC)          (F)     (DEG/KT/KT) (MB)    (MI)  (FT/S) (FT/S)
PORT ARANSAS     NOT AVBL
BUOY 90 E PORT A 0550            83 84  100/ 14/ 16 1013.4F         4/ 5
BUOY 200 E PT IS 0450            84 85  110/ 16/ 19 1013.4          3/ 4
BUOY 15 E GALVES 0450            82 83  150/ 12/ 14 1014.3          3/ 5   2/ 5
$$



USA.gov is the U.S. government's official web portal to all federal, state and local government web resources and services.